| time (UTC) | temp C | wind direction | speed KPH | gust KPH | rain 1hr cm | rain 24hr cm | rain mn cm | humidity % | barometer mb |
| 20260508063055 | 0 | 47 | 3.2 | 4.8 | 0.00 | 0.00 | 0.00 | 92 | 1016.5 |
| 20260508062552 | 0 | 49 | 3.2 | 6.4 | 0.00 | 0.00 | 0.00 | 91 | 1016.6 |
| 20260508062048 | 0 | 27 | 3.2 | 4.8 | 0.00 | 0.00 | 0.00 | 92 | 1016.6 |
| 20260508061546 | 0 | 61 | 0.0 | 6.4 | 0.00 | 0.00 | 0.00 | 91 | 1016.7 |
| 20260508061043 | 0 | 350 | 3.2 | 4.8 | 0.00 | 0.00 | 0.00 | 91 | 1016.5 |
| 20260508060539 | 0 | 46 | 1.6 | 4.8 | 0.00 | 0.00 | 0.00 | 91 | 1016.5 |
| 20260508060037 | 0 | 16 | 3.2 | 4.8 | 0.00 | 0.00 | 0.00 | 89 | 1016.8 |
| 20260508055532 | 0 | 15 | 3.2 | 3.2 | 0.00 | 0.00 | 0.00 | 91 | 1016.4 |
| 20260508055029 | 0 | 17 | 3.2 | 4.8 | 0.00 | 0.00 | 0.00 | 90 | 1016.5 |
| 20260508054526 | 0 | 105 | 3.2 | 8.0 | 0.00 | 0.00 | 0.00 | 90 | 1016.6 |
| 20260508054023 | 0 | 69 | 0.0 | 3.2 | 0.00 | 0.00 | 0.00 | 90 | 1016.7 |
| 20260508053520 | 0 | 7 | 3.2 | 6.4 | 0.00 | 0.00 | 0.00 | 91 | 1016.5 |
| 20260508053019 | 0 | 68 | 4.8 | 4.8 | 0.00 | 0.00 | 0.00 | 90 | 1016.4 |
| 20260508052515 | 0 | 107 | 3.2 | 4.8 | 0.00 | 0.00 | 0.00 | 91 | 1016.6 |
| 20260508052012 | 0 | 72 | 3.2 | 4.8 | 0.00 | 0.00 | 0.00 | 91 | 1016.5 |
| 20260508051508 | 1 | 12 | 3.2 | 4.8 | 0.00 | 0.00 | 0.00 | 90 | 1016.7 |
| 20260508051003 | 1 | 55 | 1.6 | 8.0 | 0.00 | 0.00 | 0.00 | 90 | 1016.8 |
| 20260508050500 | 0 | 349 | 4.8 | 6.4 | 0.00 | 0.00 | 0.00 | 92 | 1016.6 |
| 20260508045956 | 0 | 122 | 3.2 | 4.8 | 0.00 | 0.00 | 0.00 | 92 | 1016.8 |
| 20260508045454 | 0 | 72 | 1.6 | 4.8 | 0.00 | 0.00 | 0.00 | 91 | 1016.7 |
| 20260508044951 | 1 | 218 | 0.0 | 6.4 | 0.00 | 0.00 | 0.00 | 90 | 1016.7 |
| 20260508044448 | 1 | 49 | 1.6 | 4.8 | 0.00 | 0.00 | 0.00 | 89 | 1016.4 |
| 20260508043943 | 1 | 27 | 3.2 | 6.4 | 0.00 | 0.00 | 0.00 | 88 | 1016.6 |
| 20260508043441 | 1 | 9 | 3.2 | 4.8 | 0.00 | 0.00 | 0.00 | 89 | 1016.5 |
| 20260508042937 | 1 | 352 | 1.6 | 6.4 | 0.00 | 0.00 | 0.00 | 90 | 1016.5 |
| 20260508042436 | 1 | 18 | 4.8 | 6.4 | 0.00 | 0.00 | 0.00 | 89 | 1016.4 |
| 20260508041932 | 1 | 40 | 4.8 | 4.8 | 0.00 | 0.00 | 0.00 | 89 | 1016.3 |
| 20260508041428 | 1 | 39 | 6.4 | 8.0 | 0.00 | 0.00 | 0.00 | 88 | 1016.3 |
| 20260508040925 | 1 | 76 | 0.0 | 4.8 | 0.00 | 0.00 | 0.00 | 88 | 1016.5 |
| 20260508040423 | 1 | 89 | 0.0 | 6.4 | 0.00 | 0.00 | 0.00 | 87 | 1016.5 |
| 20260508035920 | 1 | 55 | 3.2 | 4.8 | 0.00 | 0.00 | 0.00 | 88 | 1016.3 |
| 20260508035417 | 2 | 339 | 0.0 | 4.8 | 0.00 | 0.00 | 0.00 | 88 | 1016.1 |
| 20260508034914 | 2 | 63 | 3.2 | 6.4 | 0.00 | 0.00 | 0.00 | 88 | 1016.3 |
| 20260508034411 | 2 | 83 | 4.8 | 6.4 | 0.00 | 0.00 | 0.00 | 86 | 1015.9 |
| 20260508033907 | 2 | 38 | 3.2 | 8.0 | 0.00 | 0.00 | 0.00 | 89 | 1016.0 |
| 20260508033406 | 2 | 358 | 3.2 | 4.8 | 0.00 | 0.00 | 0.00 | 89 | 1016.0 |
| 20260508032903 | 2 | 98 | 3.2 | 4.8 | 0.00 | 0.00 | 0.00 | 87 | 1016.0 |
| 20260508032400 | 2 | 332 | 3.2 | 6.4 | 0.00 | 0.00 | 0.00 | 88 | 1015.9 |
| 20260508031857 | 2 | 89 | 0.0 | 4.8 | 0.00 | 0.00 | 0.00 | 88 | 1015.8 |
| 20260508031354 | 2 | 331 | 4.8 | 6.4 | 0.00 | 0.00 | 0.00 | 87 | 1016.0 |
| 20260508030850 | 2 | 45 | 0.0 | 8.0 | 0.00 | 0.00 | 0.00 | 89 | 1015.8 |
| 20260508030347 | 2 | 68 | 3.2 | 6.4 | 0.00 | 0.00 | 0.00 | 87 | 1015.6 |
| 20260508025844 | 2 | 95 | 3.2 | 6.4 | 0.00 | 0.00 | 0.00 | 89 | 1015.7 |
| 20260508025341 | 2 | 355 | 3.2 | 4.8 | 0.00 | 0.00 | 0.00 | 89 | 1015.7 |
| 20260508024838 | 2 | 14 | 1.6 | 4.8 | 0.00 | 0.00 | 0.00 | 87 | 1015.5 |
| 20260508024334 | 2 | 82 | 1.6 | 6.4 | 0.00 | 0.00 | 0.00 | 87 | 1015.6 |
| 20260508023831 | 2 | 323 | 3.2 | 4.8 | 0.00 | 0.00 | 0.00 | 88 | 1015.4 |
| 20260508023328 | 2 | 28 | 4.8 | 8.0 | 0.00 | 0.00 | 0.00 | 87 | 1015.3 |
| 20260508022825 | 3 | 110 | 4.8 | 8.0 | 0.00 | 0.00 | 0.00 | 88 | 1015.3 |
| 20260508022321 | 3 | 116 | 3.2 | 6.4 | 0.00 | 0.00 | 0.00 | 87 | 1015.3 |
| 20260508021818 | 3 | 336 | 3.2 | 4.8 | 0.00 | 0.00 | 0.00 | 86 | 1015.3 |
| 20260508021313 | 3 | 49 | 1.6 | 3.2 | 0.00 | 0.00 | 0.00 | 87 | 1015.3 |
| 20260508020810 | 3 | 84 | 4.8 | 6.4 | 0.00 | 0.00 | 0.00 | 85 | 1015.3 |
| 20260508020308 | 3 | 54 | 0.0 | 8.0 | 0.00 | 0.00 | 0.00 | 86 | 1015.0 |
| 20260508015804 | 3 | 19 | 0.0 | 3.2 | 0.00 | 0.00 | 0.00 | 86 | 1015.0 |
| 20260508015305 | 3 | 3 | 1.6 | 4.8 | 0.00 | 0.00 | 0.00 | 87 | 1015.0 |
| 20260508014759 | 3 | 14 | 3.2 | 4.8 | 0.00 | 0.00 | 0.00 | 84 | 1014.9 |
| 20260508014256 | 4 | 56 | 3.2 | 4.8 | 0.00 | 0.00 | 0.00 | 83 | 1015.2 |
| 20260508013751 | 4 | 343 | 3.2 | 4.8 | 0.00 | 0.00 | 0.00 | 83 | 1015.0 |
| 20260508013248 | 5 | 76 | 1.6 | 4.8 | 0.00 | 0.00 | 0.00 | 81 | 1014.9 |
| 20260508012745 | 4 | 94 | 6.4 | 8.0 | 0.00 | 0.00 | 0.00 | 84 | 1015.0 |
| 20260508012242 | 4 | 3 | 4.8 | 4.8 | 0.00 | 0.00 | 0.00 | 85 | 1015.0 |
| 20260508011740 | 4 | 10 | 3.2 | 6.4 | 0.00 | 0.00 | 0.00 | 86 | 1014.9 |
| 20260508011237 | 4 | 109 | 0.0 | 6.4 | 0.00 | 0.00 | 0.00 | 84 | 1014.7 |
| 20260508010734 | 4 | 96 | 3.2 | 6.4 | 0.00 | 0.00 | 0.00 | 86 | 1014.5 |
| 20260508010233 | 4 | 74 | 1.6 | 4.8 | 0.00 | 0.00 | 0.00 | 83 | 1014.5 |
| 20260508005729 | 4 | 93 | 3.2 | 3.2 | 0.00 | 0.00 | 0.00 | 82 | 1014.4 |
| 20260508005226 | 5 | 98 | 3.2 | 4.8 | 0.00 | 0.00 | 0.00 | 81 | 1014.4 |
| 20260508004721 | 5 | 346 | 3.2 | 4.8 | 0.00 | 0.00 | 0.00 | 81 | 1014.5 |
| 20260508004218 | 5 | 23 | 1.6 | 8.0 | 0.00 | 0.00 | 0.00 | 80 | 1014.4 |
| 20260508003715 | 6 | 109 | 1.6 | 3.2 | 0.00 | 0.00 | 0.00 | 77 | 1014.3 |
| 20260508003212 | 6 | 113 | 1.6 | 6.4 | 0.00 | 0.00 | 0.00 | 76 | 1014.3 |
| 20260508002708 | 6 | 98 | 1.6 | 3.2 | 0.00 | 0.00 | 0.00 | 74 | 1014.4 |
| 20260508002206 | 6 | 126 | 1.6 | 4.8 | 0.00 | 0.00 | 0.00 | 75 | 1014.0 |
| 20260508001701 | 7 | 56 | 1.6 | 3.2 | 0.00 | 0.00 | 0.00 | 71 | 1014.3 |
| 20260508001157 | 8 | 75 | 1.6 | 8.0 | 0.00 | 0.00 | 0.00 | 65 | 1014.1 |
| 20260508000654 | 7 | 136 | 4.8 | 9.7 | 0.00 | 0.00 | 0.00 | 63 | 1014.1 |
| 20260508000151 | 8 | 137 | 3.2 | 8.0 | 0.00 | 0.00 | 0.00 | 62 | 1014.3 |
| 20260507235647 | 8 | 158 | 6.4 | 11.3 | 0.00 | 0.00 | 0.00 | 57 | 1014.1 |
| 20260507235145 | 8 | 150 | 1.6 | 12.9 | 0.00 | 0.00 | 0.00 | 59 | 1013.8 |
| 20260507234642 | 9 | 126 | 11.3 | 11.3 | 0.00 | 0.00 | 0.00 | 58 | 1014.0 |
| 20260507234138 | 9 | 196 | 8.0 | 11.3 | 0.00 | 0.00 | 0.00 | 54 | 1013.7 |
| 20260507233635 | 8 | 141 | 9.7 | 9.7 | 0.00 | 0.00 | 0.00 | 63 | 1013.7 |
| 20260507233134 | 9 | 86 | 8.0 | 14.5 | 0.00 | 0.00 | 0.00 | 57 | 1013.5 |
| 20260507232629 | 9 | 118 | 0.0 | 8.0 | 0.00 | 0.00 | 0.00 | 59 | 1013.6 |
| 20260507232127 | 10 | 122 | 11.3 | 14.5 | 0.00 | 0.00 | 0.00 | 55 | 1013.3 |
| 20260507231623 | 10 | 144 | 8.0 | 9.7 | 0.00 | 0.00 | 0.00 | 55 | 1013.4 |
| 20260507231121 | 10 | 105 | 8.0 | 12.9 | 0.00 | 0.00 | 0.00 | 54 | 1013.3 |
| 20260507230616 | 10 | 182 | 3.2 | 9.7 | 0.00 | 0.00 | 0.00 | 55 | 1013.4 |
| 20260507230114 | 10 | 148 | 6.4 | 14.5 | 0.00 | 0.00 | 0.00 | 53 | 1013.4 |
| 20260507225608 | 10 | 153 | 8.0 | 11.3 | 0.00 | 0.00 | 0.00 | 53 | 1013.4 |
| 20260507225105 | 11 | 78 | 8.0 | 22.5 | 0.00 | 0.00 | 0.00 | 50 | 1013.3 |
| 20260507224601 | 11 | 87 | 6.4 | 20.9 | 0.00 | 0.00 | 0.00 | 51 | 1013.3 |
| 20260507224058 | 11 | 193 | 6.4 | 14.5 | 0.00 | 0.00 | 0.00 | 52 | 1013.0 |
| 20260507223554 | 11 | 119 | 4.8 | 29.0 | 0.00 | 0.00 | 0.00 | 50 | 1013.2 |
| 20260507223051 | 11 | 18 | 9.7 | 17.7 | 0.00 | 0.00 | 0.00 | 51 | 1012.9 |
| 20260507222548 | 12 | 161 | 1.6 | 19.3 | 0.00 | 0.00 | 0.00 | 52 | 1013.0 |
| 20260507222044 | 11 | 197 | 9.7 | 24.1 | 0.00 | 0.00 | 0.00 | 50 | 1012.9 |
| 20260507221540 | 12 | 84 | 6.4 | 19.3 | 0.00 | 0.00 | 0.00 | 50 | 1013.0 |
| 20260507221038 | 11 | 355 | 17.7 | 33.8 | 0.00 | 0.00 | 0.00 | 52 | 1013.1 |
| 20260507220535 | 11 | 97 | 11.3 | 17.7 | 0.00 | 0.00 | 0.00 | 51 | 1012.6 |
| 20260507220032 | 12 | 0 | 11.3 | 20.9 | 0.00 | 0.00 | 0.00 | 50 | 1012.5 |
| 20260507215528 | 12 | 184 | 1.6 | 11.3 | 0.00 | 0.00 | 0.00 | 52 | 1012.5 |
| 20260507215027 | 11 | 83 | 12.9 | 22.5 | 0.00 | 0.00 | 0.00 | 53 | 1012.9 |
| 20260507214523 | 11 | 122 | 8.0 | 27.4 | 0.00 | 0.00 | 0.00 | 55 | 1012.6 |
| 20260507214019 | 11 | 226 | 4.8 | 20.9 | 0.00 | 0.00 | 0.00 | 54 | 1012.4 |
| 20260507213516 | 11 | 86 | 9.7 | 19.3 | 0.00 | 0.00 | 0.00 | 55 | 1012.5 |
| 20260507213013 | 12 | 83 | 12.9 | 32.2 | 0.00 | 0.00 | 0.00 | 52 | 1012.5 |
| 20260507212508 | 13 | 335 | 9.7 | 14.5 | 0.00 | 0.00 | 0.00 | 47 | 1012.2 |
| 20260507212005 | 13 | 182 | 4.8 | 14.5 | 0.00 | 0.00 | 0.00 | 51 | 1012.4 |
| 20260507211502 | 13 | 191 | 8.0 | 16.1 | 0.00 | 0.00 | 0.00 | 48 | 1012.3 |
| 20260507210958 | 13 | 76 | 0.0 | 9.7 | 0.00 | 0.00 | 0.00 | 53 | 1012.3 |
| 20260507210455 | 12 | 350 | 4.8 | 24.1 | 0.00 | 0.00 | 0.00 | 52 | 1012.2 |
| 20260507205952 | 12 | 47 | 4.8 | 20.9 | 0.00 | 0.00 | 0.00 | 52 | 1012.3 |
| 20260507205449 | 12 | 158 | 6.4 | 29.0 | 0.00 | 0.00 | 0.00 | 52 | 1012.4 |
| 20260507204945 | 12 | 15 | 6.4 | 25.7 | 0.00 | 0.00 | 0.00 | 55 | 1012.3 |
| 20260507204442 | 12 | 219 | 8.0 | 19.3 | 0.00 | 0.00 | 0.00 | 56 | 1012.2 |
| 20260507203940 | 12 | 154 | 4.8 | 12.9 | 0.00 | 0.00 | 0.00 | 53 | 1012.1 |
| 20260507203437 | 12 | 348 | 9.7 | 20.9 | 0.00 | 0.00 | 0.00 | 55 | 1012.4 |
| 20260507202934 | 13 | 57 | 11.3 | 16.1 | 0.00 | 0.00 | 0.00 | 51 | 1012.3 |
| 20260507202430 | 13 | 223 | 3.2 | 12.9 | 0.00 | 0.00 | 0.00 | 52 | 1012.3 |
| 20260507201926 | 11 | 29 | 14.5 | 25.7 | 0.00 | 0.00 | 0.00 | 54 | 1012.4 |
| 20260507201421 | 11 | 312 | 6.4 | 20.9 | 0.00 | 0.00 | 0.00 | 55 | 1012.4 |
| 20260507200919 | 12 | 355 | 19.3 | 25.7 | 0.00 | 0.00 | 0.00 | 54 | 1012.4 |
| 20260507200414 | 12 | 29 | 9.7 | 38.6 | 0.00 | 0.00 | 0.00 | 54 | 1012.4 |
| 20260507195910 | 11 | 92 | 16.1 | 32.2 | 0.00 | 0.00 | 0.00 | 56 | 1012.3 |
| 20260507195408 | 12 | 59 | 6.4 | 22.5 | 0.00 | 0.00 | 0.00 | 55 | 1012.2 |
| 20260507194905 | 13 | 113 | 11.3 | 24.1 | 0.00 | 0.00 | 0.00 | 51 | 1012.1 |
| 20260507194401 | 12 | 28 | 9.7 | 27.4 | 0.00 | 0.00 | 0.00 | 53 | 1012.2 |
| 20260507193857 | 13 | 142 | 45.1 | 45.1 | 0.00 | 0.00 | 0.00 | 50 | 1012.3 |
| 20260507193355 | 15 | 171 | 8.0 | 14.5 | 0.00 | 0.00 | 0.00 | 47 | 1012.4 |
| 20260507192851 | 12 | 350 | 4.8 | 32.2 | 0.00 | 0.00 | 0.00 | 52 | 1012.4 |
| 20260507192347 | 12 | 84 | 16.1 | 38.6 | 0.00 | 0.00 | 0.00 | 55 | 1012.7 |
| 20260507191844 | 12 | 64 | 12.9 | 19.3 | 0.00 | 0.00 | 0.00 | 54 | 1012.5 |
| 20260507191340 | 13 | 41 | 8.0 | 14.5 | 0.00 | 0.00 | 0.00 | 54 | 1012.5 |
| 20260507190837 | 13 | 50 | 14.5 | 17.7 | 0.00 | 0.00 | 0.00 | 52 | 1012.6 |
| 20260507190335 | 13 | 192 | 17.7 | 38.6 | 0.00 | 0.00 | 0.00 | 54 | 1012.3 |
| 20260507185834 | 13 | 189 | 11.3 | 20.9 | 0.00 | 0.00 | 0.00 | 50 | 1012.3 |
| 20260507185330 | 12 | 83 | 16.1 | 19.3 | 0.00 | 0.00 | 0.00 | 55 | 1012.7 |
| 20260507184828 | 11 | 187 | 3.2 | 25.7 | 0.00 | 0.00 | 0.00 | 59 | 1012.6 |
| 20260507184326 | 13 | 310 | 6.4 | 9.7 | 0.00 | 0.00 | 0.00 | 59 | 1012.4 |
| 20260507183822 | 15 | 205 | 11.3 | 12.9 | 0.00 | 0.00 | 0.00 | 50 | 1012.5 |
| 20260507183319 | 15 | 215 | 8.0 | 14.5 | 0.00 | 0.00 | 0.00 | 51 | 1012.7 |
| 20260507182817 | 12 | 94 | 6.4 | 11.3 | 0.00 | 0.00 | 0.00 | 59 | 1012.7 |
| 20260507182312 | 14 | 318 | 6.4 | 11.3 | 0.00 | 0.00 | 0.00 | 56 | 1012.7 |
| 20260507181809 | 13 | 321 | 14.5 | 27.4 | 0.00 | 0.00 | 0.00 | 55 | 1012.5 |
| 20260507181305 | 15 | 199 | 8.0 | 16.1 | 0.00 | 0.00 | 0.00 | 57 | 1012.7 |
| 20260507180801 | 14 | 201 | 4.8 | 22.5 | 0.00 | 0.00 | 0.00 | 55 | 1012.7 |
| 20260507180259 | 13 | 166 | 6.4 | 27.4 | 0.00 | 0.00 | 0.00 | 58 | 1012.4 |
| 20260507175754 | 13 | 155 | 6.4 | 22.5 | 0.00 | 0.00 | 0.00 | 59 | 1012.7 |
| 20260507175251 | 13 | 246 | 11.3 | 22.5 | 0.00 | 0.00 | 0.00 | 57 | 1012.9 |
| 20260507174748 | 12 | 88 | 3.2 | 8.0 | 0.00 | 0.00 | 0.00 | 61 | 1012.9 |
| 20260507174246 | 11 | 28 | 3.2 | 24.1 | 0.00 | 0.00 | 0.00 | 63 | 1013.1 |
| 20260507173744 | 10 | 94 | 8.0 | 25.7 | 0.00 | 0.00 | 0.00 | 65 | 1013.0 |
| 20260507173241 | 14 | 71 | 24.1 | 24.1 | 0.00 | 0.00 | 0.00 | 60 | 1013.1 |
| 20260507172737 | 11 | 119 | 12.9 | 30.6 | 0.00 | 0.00 | 0.00 | 63 | 1013.2 |
| 20260507172234 | 11 | 333 | 3.2 | 17.7 | 0.00 | 0.00 | 0.00 | 68 | 1013.2 |
| 20260507171734 | 11 | 180 | 19.3 | 19.3 | 0.00 | 0.00 | 0.00 | 64 | 1013.2 |
| 20260507171232 | 10 | 17 | 11.3 | 20.9 | 0.00 | 0.00 | 0.00 | 67 | 1013.3 |
| 20260507170729 | 11 | 347 | 8.0 | 22.5 | 0.00 | 0.00 | 0.00 | 68 | 1013.4 |
| 20260507170225 | 10 | 328 | 4.8 | 14.5 | 0.00 | 0.00 | 0.00 | 68 | 1013.2 |
| 20260507165721 | 10 | 332 | 4.8 | 22.5 | 0.00 | 0.00 | 0.00 | 71 | 1013.4 |
| 20260507165217 | 11 | 347 | 8.0 | 17.7 | 0.00 | 0.00 | 0.00 | 65 | 1013.3 |
| 20260507164713 | 11 | 142 | 1.6 | 9.7 | 0.00 | 0.00 | 0.00 | 66 | 1013.7 |
| 20260507164211 | 13 | 55 | 6.4 | 17.7 | 0.00 | 0.00 | 0.00 | 61 | 1013.5 |
| 20260507163708 | 10 | 329 | 6.4 | 29.0 | 0.00 | 0.00 | 0.00 | 69 | 1013.7 |
| 20260507163206 | 10 | 6 | 11.3 | 30.6 | 0.00 | 0.00 | 0.00 | 68 | 1013.8 |
| 20260507162702 | 12 | 181 | 4.8 | 17.7 | 0.00 | 0.00 | 0.00 | 63 | 1013.5 |
| 20260507162158 | 10 | 159 | 4.8 | 29.0 | 0.00 | 0.00 | 0.00 | 75 | 1014.1 |
| 20260507161654 | 10 | 132 | 8.0 | 16.1 | 0.00 | 0.00 | 0.00 | 69 | 1014.1 |
| 20260507161150 | 11 | 154 | 3.2 | 24.1 | 0.00 | 0.00 | 0.00 | 70 | 1014.1 |
| 20260507160647 | 11 | 100 | 4.8 | 17.7 | 0.00 | 0.00 | 0.00 | 70 | 1014.0 |
| 20260507160144 | 11 | 44 | 3.2 | 9.7 | 0.00 | 0.00 | 0.00 | 73 | 1014.1 |
| 20260507155639 | 10 | 132 | 4.8 | 17.7 | 0.00 | 0.00 | 0.00 | 69 | 1014.3 |
| 20260507155136 | 10 | 346 | 19.3 | 25.7 | 0.00 | 0.00 | 0.00 | 71 | 1014.5 |
| 20260507154633 | 11 | 105 | 6.4 | 14.5 | 0.00 | 0.00 | 0.00 | 69 | 1014.2 |
| 20260507154130 | 11 | 176 | 1.6 | 11.3 | 0.00 | 0.00 | 0.00 | 68 | 1014.2 |
| 20260507153621 | 10 | 156 | 9.7 | 11.3 | 0.00 | 0.00 | 0.00 | 73 | 1014.3 |
| 20260507153117 | 8 | 45 | 4.8 | 22.5 | 0.00 | 0.00 | 0.00 | 79 | 1014.0 |
| 20260507152613 | 8 | 36 | 8.0 | 24.1 | 0.00 | 0.00 | 0.00 | 79 | 1014.4 |
| 20260507152109 | 8 | 86 | 9.7 | 14.5 | 0.00 | 0.00 | 0.00 | 78 | 1014.2 |
| 20260507151605 | 8 | 78 | 9.7 | 14.5 | 0.00 | 0.00 | 0.00 | 78 | 1014.1 |
| 20260507151103 | 8 | 107 | 24.1 | 24.1 | 0.00 | 0.00 | 0.00 | 76 | 1014.3 |
| 20260507150600 | 8 | 65 | 4.8 | 12.9 | 0.00 | 0.00 | 0.00 | 76 | 1014.5 |
| 20260507150057 | 8 | 79 | 6.4 | 11.3 | 0.00 | 0.00 | 0.00 | 76 | 1014.5 |
| 20260507145552 | 8 | 150 | 6.4 | 11.3 | 0.00 | 0.00 | 0.00 | 75 | 1014.3 |
| 20260507145050 | 9 | 3 | 4.8 | 8.0 | 0.00 | 0.00 | 0.00 | 73 | 1014.6 |
| 20260507144546 | 8 | 161 | 6.4 | 9.7 | 0.00 | 0.00 | 0.00 | 73 | 1014.5 |
| 20260507144044 | 8 | 153 | 16.1 | 16.1 | 0.00 | 0.00 | 0.00 | 73 | 1014.5 |
| 20260507143540 | 8 | 42 | 4.8 | 8.0 | 0.00 | 0.00 | 0.00 | 75 | 1014.3 |
| 20260507143038 | 7 | 58 | 3.2 | 8.0 | 0.00 | 0.00 | 0.00 | 76 | 1014.4 |
| 20260507142533 | 7 | 298 | 1.6 | 4.8 | 0.00 | 0.00 | 0.00 | 75 | 1014.7 |
| 20260507142031 | 7 | 140 | 3.2 | 6.4 | 0.00 | 0.00 | 0.00 | 74 | 1014.7 |
| 20260507141527 | 7 | 323 | 4.8 | 6.4 | 0.00 | 0.00 | 0.00 | 77 | 1014.9 |
| 20260507141024 | 7 | 55 | 4.8 | 11.3 | 0.00 | 0.00 | 0.00 | 77 | 1014.9 |
| 20260507140521 | 8 | 308 | 0.0 | 6.4 | 0.00 | 0.00 | 0.00 | 77 | 1014.9 |
| 20260507140018 | 7 | 330 | 3.2 | 4.8 | 0.00 | 0.00 | 0.00 | 77 | 1015.0 |
| 20260507135515 | 7 | 86 | 0.0 | 11.3 | 0.00 | 0.00 | 0.00 | 78 | 1015.3 |
| 20260507135012 | 7 | 151 | 4.8 | 8.0 | 0.00 | 0.00 | 0.00 | 78 | 1015.3 |
| 20260507134508 | 7 | 122 | 8.0 | 12.9 | 0.00 | 0.00 | 0.00 | 78 | 1015.0 |
| 20260507134004 | 6 | 94 | 6.4 | 12.9 | 0.00 | 0.00 | 0.00 | 77 | 1014.9 |
| 20260507133500 | 6 | 36 | 12.9 | 17.7 | 0.00 | 0.00 | 0.00 | 77 | 1014.8 |
| 20260507132959 | 6 | 141 | 11.3 | 12.9 | 0.00 | 0.00 | 0.00 | 78 | 1015.2 |
| 20260507132455 | 6 | 122 | 9.7 | 14.5 | 0.00 | 0.00 | 0.00 | 79 | 1015.0 |
| 20260507131951 | 6 | 76 | 4.8 | 16.1 | 0.00 | 0.00 | 0.00 | 80 | 1015.0 |
| 20260507131448 | 6 | 171 | 6.4 | 8.0 | 0.00 | 0.00 | 0.00 | 80 | 1015.2 |
| 20260507130945 | 6 | 68 | 8.0 | 8.0 | 0.00 | 0.00 | 0.00 | 80 | 1015.3 |
| 20260507130442 | 6 | 127 | 1.6 | 9.7 | 0.00 | 0.00 | 0.00 | 80 | 1015.2 |
| 20260507125941 | 6 | 171 | 4.8 | 11.3 | 0.00 | 0.00 | 0.00 | 77 | 1015.3 |
| 20260507125439 | 6 | 80 | 6.4 | 14.5 | 0.00 | 0.00 | 0.00 | 77 | 1015.2 |
| 20260507124936 | 6 | 199 | 0.0 | 8.0 | 0.00 | 0.00 | 0.00 | 80 | 1015.4 |
| 20260507124432 | 6 | 48 | 3.2 | 6.4 | 0.00 | 0.00 | 0.00 | 85 | 1015.4 |
| 20260507123930 | 6 | 170 | 3.2 | 11.3 | 0.00 | 0.00 | 0.00 | 83 | 1015.3 |
| 20260507123427 | 6 | 47 | 1.6 | 9.7 | 0.00 | 0.00 | 0.00 | 86 | 1015.3 |
| 20260507122923 | 6 | 2 | 1.6 | 8.0 | 0.00 | 0.00 | 0.00 | 91 | 1015.2 |
| 20260507122419 | 6 | 86 | 6.4 | 19.3 | 0.00 | 0.00 | 0.00 | 91 | 1014.9 |
| 20260507121915 | 6 | 76 | 14.5 | 17.7 | 0.00 | 0.00 | 0.00 | 91 | 1015.2 |
| 20260507121410 | 6 | 93 | 8.0 | 12.9 | 0.00 | 0.00 | 0.00 | 92 | 1015.2 |
| 20260507120908 | 6 | 350 | 11.3 | 14.5 | 0.00 | 0.00 | 0.00 | 92 | 1014.9 |
| 20260507120404 | 6 | 74 | 8.0 | 14.5 | 0.00 | 0.00 | 0.00 | 92 | 1014.9 |
| 20260507115900 | 6 | 78 | 14.5 | 14.5 | 0.00 | 0.00 | 0.00 | 93 | 1014.9 |
| 20260507115356 | 6 | 116 | 0.0 | 8.0 | 0.00 | 0.00 | 0.00 | 94 | 1015.2 |
| 20260507114852 | 6 | 67 | 6.4 | 9.7 | 0.00 | 0.00 | 0.00 | 94 | 1014.6 |
| 20260507114349 | 6 | 5 | 4.8 | 8.0 | 0.00 | 0.00 | 0.00 | 93 | 1015.0 |
| 20260507113846 | 6 | 3 | 3.2 | 4.8 | 0.00 | 0.00 | 0.00 | 94 | 1015.0 |
| 20260507113343 | 6 | 105 | 0.0 | 4.8 | 0.00 | 0.00 | 0.00 | 94 | 1014.9 |
| 20260507112841 | 6 | 41 | 3.2 | 9.7 | 0.00 | 0.00 | 0.00 | 93 | 1014.7 |
| 20260507112338 | 6 | 83 | 6.4 | 8.0 | 0.00 | 0.00 | 0.00 | 94 | 1015.0 |
| 20260507111836 | 6 | 131 | 1.6 | 4.8 | 0.00 | 0.00 | 0.00 | 95 | 1014.8 |
| 20260507111332 | 6 | 305 | 4.8 | 8.0 | 0.00 | 0.00 | 0.00 | 95 | 1014.6 |
| 20260507110828 | 6 | 347 | 4.8 | 6.4 | 0.00 | 0.00 | 0.00 | 96 | 1014.5 |
| 20260507110324 | 6 | 60 | 0.0 | 8.0 | 0.00 | 0.00 | 0.00 | 97 | 1014.7 |
| 20260507105821 | 7 | 89 | 0.0 | 3.2 | 0.00 | 0.00 | 0.00 | 96 | 1014.5 |
| 20260507105318 | 7 | 9 | 1.6 | 8.0 | 0.00 | 0.00 | 0.00 | 94 | 1014.4 |
| 20260507104815 | 7 | 81 | 3.2 | 9.7 | 0.00 | 0.00 | 0.00 | 94 | 1014.2 |
| 20260507104311 | 7 | 46 | 3.2 | 8.0 | 0.00 | 0.00 | 0.00 | 95 | 1014.2 |
| 20260507103807 | 7 | 58 | 6.4 | 12.9 | 0.00 | 0.00 | 0.00 | 93 | 1014.5 |
| 20260507103304 | 7 | 19 | 4.8 | 6.4 | 0.00 | 0.00 | 0.00 | 93 | 1014.1 |
| 20260507102801 | 7 | 117 | 3.2 | 6.4 | 0.00 | 0.00 | 0.00 | 92 | 1014.1 |
| 20260507102257 | 7 | 77 | 4.8 | 6.4 | 0.00 | 0.00 | 0.00 | 92 | 1014.2 |
| 20260507101754 | 7 | 104 | 1.6 | 4.8 | 0.00 | 0.00 | 0.00 | 93 | 1014.4 |
| 20260507101253 | 7 | 269 | 0.0 | 4.8 | 0.00 | 0.00 | 0.00 | 94 | 1014.2 |
| 20260507100751 | 7 | 38 | 0.0 | 4.8 | 0.00 | 0.00 | 0.00 | 95 | 1014.1 |
| 20260507100249 | 7 | 26 | 4.8 | 6.4 | 0.00 | 0.00 | 0.00 | 95 | 1014.1 |
| 20260507095747 | 7 | 355 | 3.2 | 4.8 | 0.00 | 0.00 | 0.00 | 94 | 1014.1 |
| 20260507095243 | 7 | 147 | 1.6 | 4.8 | 0.00 | 0.00 | 0.00 | 94 | 1014.1 |
| 20260507094740 | 7 | 113 | 4.8 | 4.8 | 0.00 | 0.00 | 0.00 | 93 | 1014.2 |
| 20260507094237 | 7 | 125 | 0.0 | 4.8 | 0.00 | 0.00 | 0.00 | 93 | 1014.2 |
| 20260507093734 | 7 | 174 | 3.2 | 4.8 | 0.00 | 0.00 | 0.00 | 93 | 1014.1 |
| 20260507093232 | 7 | 184 | 0.0 | 6.4 | 0.00 | 0.00 | 0.00 | 93 | 1014.1 |
| 20260507092730 | 7 | 135 | 0.0 | 4.8 | 0.00 | 0.00 | 0.00 | 94 | 1014.0 |
| 20260507092225 | 7 | 44 | 0.0 | 6.4 | 0.00 | 0.00 | 0.00 | 95 | 1014.1 |
| 20260507091722 | 7 | 320 | 4.8 | 4.8 | 0.00 | 0.00 | 0.00 | 94 | 1013.8 |
| 20260507091219 | 7 | 12 | 4.8 | 12.9 | 0.00 | 0.00 | 0.00 | 93 | 1013.8 |
| 20260507090714 | 7 | 344 | 6.4 | 11.3 | 0.00 | 0.00 | 0.00 | 93 | 1013.5 |
| 20260507090211 | 7 | 342 | 3.2 | 6.4 | 0.00 | 0.00 | 0.00 | 94 | 1013.6 |
| 20260507085708 | 7 | 93 | 0.0 | 6.4 | 0.00 | 0.00 | 0.00 | 95 | 1013.5 |
| 20260507085205 | 7 | 87 | 4.8 | 6.4 | 0.00 | 0.00 | 0.00 | 97 | 1013.7 |
| 20260507084702 | 7 | 89 | 3.2 | 4.8 | 0.00 | 0.00 | 0.00 | 97 | 1013.7 |
| 20260507084158 | 7 | 335 | 4.8 | 6.4 | 0.00 | 0.00 | 0.00 | 97 | 1013.7 |
| 20260507083655 | 7 | 94 | 0.0 | 4.8 | 0.00 | 0.00 | 0.00 | 98 | 1014.1 |
| 20260507083152 | 7 | 339 | 3.2 | 6.4 | 0.00 | 0.00 | 0.00 | 98 | 1014.1 |
| 20260507082648 | 7 | 80 | 1.6 | 6.4 | 0.00 | 0.00 | 0.00 | 97 | 1014.2 |
| 20260507082144 | 7 | 38 | 4.8 | 6.4 | 0.00 | 0.00 | 0.00 | 98 | 1014.0 |
| 20260507081641 | 7 | 328 | 0.0 | 8.0 | 0.00 | 0.00 | 0.00 | 98 | 1013.8 |
| 20260507081137 | 7 | 110 | 6.4 | 11.3 | 0.00 | 0.00 | 0.00 | 98 | 1013.8 |
| 20260507080634 | 7 | 0 | 6.4 | 8.0 | 0.00 | 0.00 | 0.00 | 98 | 1014.1 |
| 20260507080131 | 7 | 72 | 3.2 | 8.0 | 0.00 | 0.00 | 0.00 | 98 | 1013.8 |
| 20260507075631 | 7 | 25 | 4.8 | 6.4 | 0.00 | 0.00 | 0.00 | 98 | 1014.4 |
| 20260507075127 | 7 | 348 | 4.8 | 6.4 | 0.00 | 0.00 | 0.00 | 97 | 1014.1 |
| 20260507074624 | 7 | 347 | 4.8 | 8.0 | 0.00 | 0.00 | 0.00 | 97 | 1014.1 |
| 20260507074122 | 8 | 92 | 4.8 | 6.4 | 0.00 | 0.00 | 0.00 | 97 | 1014.2 |
| 20260507073618 | 8 | 33 | 4.8 | 8.0 | 0.00 | 0.00 | 0.00 | 97 | 1014.2 |
| 20260507073114 | 8 | 5 | 4.8 | 6.4 | 0.00 | 0.00 | 0.00 | 97 | 1014.3 |
| 20260507072613 | 8 | 358 | 4.8 | 6.4 | 0.00 | 0.00 | 0.00 | 97 | 1014.4 |
| 20260507072109 | 8 | 89 | 0.0 | 4.8 | 0.00 | 0.00 | 0.00 | 97 | 1014.3 |
| 20260507071607 | 8 | 138 | 0.0 | 8.0 | 0.00 | 0.00 | 0.00 | 96 | 1014.3 |
| 20260507071103 | 8 | 333 | 4.8 | 4.8 | 0.00 | 0.00 | 0.00 | 96 | 1014.2 |
| 20260507070600 | 8 | 73 | 4.8 | 4.8 | 0.00 | 0.00 | 0.00 | 96 | 1014.0 |
| 20260507070057 | 8 | 29 | 0.0 | 3.2 | 0.00 | 0.00 | 0.00 | 95 | 1014.1 |
| 20260507065553 | 8 | 343 | 1.6 | 4.8 | 0.00 | 0.00 | 0.00 | 95 | 1014.1 |
| 20260507065051 | 8 | 3 | 4.8 | 4.8 | 0.00 | 0.00 | 0.00 | 94 | 1014.0 |
| 20260507064549 | 8 | 64 | 4.8 | 11.3 | 0.00 | 0.00 | 0.00 | 94 | 1013.7 |
| 20260507064047 | 8 | 58 | 6.4 | 9.7 | 0.00 | 0.00 | 0.00 | 93 | 1014.3 |
| 20260507063544 | 8 | 95 | 0.0 | 3.2 | 0.00 | 0.00 | 0.00 | 93 | 1014.3 |